Location: Wapato
(46.4478°N, 120.4212°W)
Time: 23:26:36
(UTC+00:00)

Vanguard 1 Rocket - Pass Details

Date: 14 May 2026
Orbit: 656 x 4211 km, 34.3° (Epoch: 7 June)

Event Time Altitude Azimuth Distance (km) Brightness Sun altitude
Rises 05:02:20 0° 276° (W) 6,422 12.5 -13.8°
Reaches altitude 10° 05:06:29 10° 269° (W) 5,834 12.1 -14.3°
Maximum altitude 05:23:28 37° 211° (SSW) 5,136 11.0 -16.2°
Enters shadow 05:40:26 18° 162° (SSE) 6,709 11.2 -17.9°
